Raymond, SD (57258)

8:47 AM CDT on March 29, 2015 (GMT -0500)
Clark County Courthouse | | Change Station
CLOSE
Current Station
Personal Weather Station
Location: Clark, SD
Elevation: 1839 ft
Nearby Weather Stations
Active Advisory: Wind Advisory

Elev 1839 ft 44.88 °N, 97.73 °W | Updated 2 minutes ago

Rain
Rain
41.1 °F
Feels Like 32 °F
N
18.0
Wind Variable Wind from North
Gusts 20.0 mph

Today
High -- | Low -- °F
--% Chance of Precip.
Yesterday
High -- | Low -- °F
Precip. -- in
7:18 AM 7:55 PM
Waxing Gibbous, 71% visible
Pressure 29.73 in
Visibility 10.0 miles
Clouds Mostly Cloudy 1200 ft
Mostly Cloudy 1700 ft
Overcast 3100 ft
Windchill 32 °F
Dew Point 39 °F
Humidity 91%
Rainfall 0.05 in
Snow Depth Not available.
UV 0 out of 12
Pollen 7.80 out of 12
Air Quality Not available.
Flu Activity Not available.
SPECI KATY 291339Z AUTO 32027G40KT 10SM -RA BKN012 BKN017 OVC031 06/04 A2973 RMK AO2 PK WND 32040/1335 PRESRR P0003 T00560039

More Conditions Fewer Conditions

Pressure 29.73 in
Visibility 10.0 miles
Clouds Mostly Cloudy 1200 ft
Mostly Cloudy 1700 ft
Overcast 3100 ft
Windchill 32 °F
Dew Point 39 °F
Humidity 91%
Rainfall 0.05 in
Snow Depth Not available.
UV 0 out of 12
Pollen 7.80 out of 12
Air Quality Not available.
Flu Activity Not available.
SPECI KATY 291339Z AUTO 32027G40KT 10SM -RA BKN012 BKN017 OVC031 06/04 A2973 RMK AO2 PK WND 32040/1335 PRESRR P0003 T00560039

More Conditions Fewer Conditions

10-Day Weather Forecast

Almanac

Astronomy

Mar. 29, 2015 Rise Set
Actual Time
Civil Twilight
Nautical Twilight
Astronomical Twilight
Moon
Length of Visible Light
Length of Day
Tomorrow will be .
, % of the Moon is Illuminated

Today's Extremes

State Highs State Lows

Community

WunderPhotos

Upload Photos

1,809,234 photos uploaded!

WunderBlogs® & News

Nearby

Air Quality

  Air Quality AQ Index Pollutant
Not available.

Snow Depth

Station Depth Elevation

Earthquake Activity

City Distance Mag. Time & Date
Minimum magnitude displayed is 2.5.

Coastal Water Temperatures

Place Temperature

Stations

Nearby Weather Stations

Station Location Temp. Windchill Dew Point Humidity Wind Precip. Elev Updated Type
                   
Wind Advisory
Statement as of 3:34 AM CDT on March 29, 2015

... Wind Advisory remains in effect from 7 am this morning to 7 PM
CDT this evening...

* timing... winds will increase this morning and persist through
early evening.

* Winds... northwest 25 to 35 mph with gusts to 45 mph.

* Impacts... due to very strong winds... fire danger will be very
high today.

Precautionary/preparedness actions...

A Wind Advisory means that sustained winds of 30 mph or higher
are expected. Winds this strong can make driving difficult...
especially for high profile vehicles. Use extra caution.